User: anonymous   Login
Location: �perlecques
(50.8057°N, 2.1521°E)
Time: 06:36:31
(UTC+00:00)
Language:

Vanguard 1 Rocket - Orbit

View from above orbital plane
View from above orbital plane
View from above satellite
View from above satellite

Ground track
Ground track

The orbit data is extracted from the following two-line orbital elements,

1 00016U 58002A   21204.33438839  .00000190  00000-0  27506-3 0  9995
2 00016  34.2649  77.2678 2027558 127.9428 252.2307 10.48740153500926
Epoch (UTC): 23 July 2021 08:01:31
Eccentricity: 0.2027558
inclination: 34.2649°
perigee height: 650 km
apogee height: 4226 km
right ascension of ascending node: 77.2678°
argument of perigee: 127.9428°
revolutions per day: 10.48740153
mean anomaly at epoch: 252.2307°
orbit number at epoch: 50092

The dashed part of the orbit path shows where the satellite is in the earth's shadow,  

DLR